Weather History for KVWU - February, 2014

Change the Weather History Date:

Sunday, February 23, 2014

  Actual Average (KBDE) Record (KBDE)
Temperature  
Mean Temperature 5 °F -  
Max Temperature 12 °F 28 °F 50 °F (1958)
Min Temperature -2 °F 3 °F -37 °F (1957)
Degree Days  
Heating Degree Days 60    
Moisture  
Dew Point -2 °F    
Average Humidity 77    
Maximum Humidity 85    
Minimum Humidity 67    
Precipitation  
Precipitation 0.00 in - - ()
Sea Level Pressure  
Sea Level Pressure 30.07 in    
Wind  
Wind Speed 12 mph (WSW)    
Max Wind Speed 18 mph    
Max Gust Speed 25 mph    
Visibility 10 miles    
Events Snow    
Averages and records for this station are not official NWS values.
T = Trace of Precipitation, MM = Missing Value Source: NWS Daily Summary

Daily Weather History Graph

Daily Weather History Graph

Search for Another Location

Airport or City:

Trip Planner

Search our weather history database for the weather conditions in past years. The results will help you decide how hot, cold, wet, or windy it might be!

Date:

Astronomy

Feb. 23, 2014 Rise Set
Actual Time 7:10 AM CST 5:53 PM CST
Civil Twilight 6:38 AM CST 6:24 PM CST
Nautical Twilight 6:02 AM CST 7:00 PM CST
Astronomical Twilight 5:26 AM CST 7:36 PM CST
Moon 2:23 AM CST (2/23) 11:42 AM CST (2/23)
Length of Visible Light 11h 45m
Length of Day
10h 42m
Last Quarter, 38% of the Moon is Illuminated
Feb 23
Last Quarter
Mar 1
New
Mar 8
First Quarter
Mar 16
Full
Mar 23
Last Quarter

Hourly Weather History & Observations

Time (CST) Temp. Windchill Dew Point Humidity Pressure Visibility Wind Dir Wind Speed Gust Speed Precip Events Conditions
12:15 AM -0.4 °F -17.6 °F -5.8 °F 78% 29.97 in 10.0 mi SW 11.5 mph - N/A   Mostly Cloudy
12:34 AM -0.4 °F -15.7 °F -5.8 °F 78% 29.97 in 10.0 mi SW 9.2 mph - N/A   Overcast
12:55 AM 1.4 °F -14.5 °F -2.2 °F 85% 29.98 in 10.0 mi WSW 10.4 mph - N/A   Mostly Cloudy
1:15 AM 1.4 °F -16.1 °F -2.2 °F 85% 29.97 in 10.0 mi WSW 12.7 mph 17.3 mph N/A   Scattered Clouds
1:34 AM 1.4 °F -15.3 °F -2.2 °F 85% 29.98 in 10.0 mi WSW 11.5 mph - N/A   Scattered Clouds
1:55 AM 1.4 °F -15.3 °F -2.2 °F 85% 29.98 in 10.0 mi WSW 11.5 mph - N/A   Clear
2:14 AM -0.4 °F -16.7 °F -4.0 °F 85% 29.98 in 10.0 mi WSW 10.4 mph - N/A   Clear
2:34 AM 1.4 °F -14.5 °F -2.2 °F 85% 29.98 in 10.0 mi WSW 10.4 mph 16.1 mph N/A   Scattered Clouds
2:55 AM -0.4 °F -16.7 °F -4.0 °F 85% 29.99 in 10.0 mi WSW 10.4 mph - N/A   Scattered Clouds
3:14 AM 1.4 °F -16.9 °F -2.2 °F 85% 29.99 in 10.0 mi WSW 13.8 mph - N/A   Scattered Clouds
3:34 AM 1.4 °F -14.5 °F -2.2 °F 85% 29.99 in 10.0 mi WSW 10.4 mph 17.3 mph N/A   Clear
3:55 AM -0.4 °F -16.7 °F -5.8 °F 78% 30.00 in 10.0 mi SW 10.4 mph - N/A   Clear
4:14 AM -0.4 °F -17.6 °F -5.8 °F 78% 30.00 in 7.0 mi WSW 11.5 mph - N/A   Clear
4:34 AM -0.4 °F -18.4 °F -5.8 °F 78% 30.00 in 10.0 mi WSW 12.7 mph 17.3 mph N/A   Clear
4:55 AM -0.4 °F -17.6 °F -5.8 °F 78% 30.00 in 10.0 mi WSW 11.5 mph - N/A   Clear
5:14 AM -2.2 °F -19.9 °F -5.8 °F 85% 30.01 in 10.0 mi WSW 11.5 mph - N/A   Clear
5:34 AM -2.2 °F -19.9 °F -5.8 °F 85% 30.02 in 10.0 mi WSW 11.5 mph 17.3 mph N/A   Clear
5:55 AM -2.2 °F -20.7 °F -7.6 °F 78% 30.02 in 10.0 mi SW 12.7 mph - N/A   Clear
6:14 AM -2.2 °F -20.7 °F -7.6 °F 78% 30.03 in 10.0 mi SW 12.7 mph 17.3 mph N/A   Clear
6:35 AM -2.2 °F -19.9 °F -7.6 °F 78% 30.03 in 10.0 mi WSW 11.5 mph - N/A   Mostly Cloudy
6:55 AM -2.2 °F -18.9 °F -5.8 °F 85% 30.02 in 10.0 mi WSW 10.4 mph - N/A   Overcast
7:14 AM -2.2 °F -18.9 °F -5.8 °F 85% 30.03 in 7.0 mi WSW 10.4 mph - N/A   Scattered Clouds
7:35 AM -2.2 °F -18.9 °F -5.8 °F 85% 30.03 in 10.0 mi WSW 10.4 mph - N/A   Clear
7:55 AM -2.2 °F -19.9 °F -5.8 °F 85% 30.04 in 10.0 mi WSW 11.5 mph - N/A   Scattered Clouds
8:14 AM -0.4 °F -17.6 °F -5.8 °F 78% 30.04 in 10.0 mi WSW 11.5 mph - N/A   Clear
8:35 AM 1.4 °F -16.1 °F -4.0 °F 78% 30.04 in 7.0 mi WSW 12.7 mph - N/A   Scattered Clouds
8:55 AM 1.4 °F -15.3 °F -2.2 °F 85% 30.05 in 10.0 mi WSW 11.5 mph - N/A   Clear
9:14 AM 1.4 °F -14.5 °F -2.2 °F 85% 30.05 in 10.0 mi WSW 10.4 mph 16.1 mph N/A   Scattered Clouds
9:35 AM 3.2 °F -12.2 °F -2.2 °F 78% 30.06 in 10.0 mi West 10.4 mph - N/A   Overcast
9:55 AM 6.8 °F -8.6 °F -0.4 °F 72% 30.06 in 10.0 mi West 11.5 mph 18.4 mph N/A   Overcast
10:14 AM 6.8 °F -9.3 °F -0.4 °F 72% 30.06 in 10.0 mi West 12.7 mph 17.3 mph N/A   Mostly Cloudy
10:35 AM 8.6 °F -7.0 °F -0.4 °F 67% 30.07 in 10.0 mi West 12.7 mph 18.4 mph N/A   Scattered Clouds
10:55 AM 8.6 °F -7.0 °F -0.4 °F 67% 30.07 in 10.0 mi West 12.7 mph 18.4 mph N/A   Clear
11:14 AM 8.6 °F -7.7 °F -0.4 °F 67% 30.07 in 10.0 mi West 13.8 mph - N/A   Clear
11:35 AM 8.6 °F -7.7 °F -0.4 °F 67% 30.08 in 10.0 mi West 13.8 mph 19.6 mph N/A   Clear
11:55 AM 8.6 °F -8.3 °F -0.4 °F 67% 30.08 in 10.0 mi West 15.0 mph 20.7 mph N/A   Clear
12:14 PM 10.4 °F -6.0 °F 1.4 °F 67% 30.08 in 10.0 mi West 15.0 mph - N/A   Clear
12:35 PM 10.4 °F -6.6 °F 1.4 °F 67% 30.08 in 10.0 mi West 16.1 mph 20.7 mph N/A   Unknown
12:55 PM 10.4 °F -5.4 °F 1.4 °F 67% 30.08 in 10.0 mi West 13.8 mph 20.7 mph N/A   Clear
1:14 PM 10.4 °F -7.2 °F 1.4 °F 67% 30.08 in 10.0 mi West 17.3 mph 21.9 mph N/A   Clear
1:35 PM 10.4 °F -6.6 °F 1.4 °F 67% 30.08 in 10.0 mi West 16.1 mph 21.9 mph N/A   Clear
1:55 PM 10.4 °F -7.2 °F 1.4 °F 67% 30.08 in 10.0 mi West 17.3 mph 23.0 mph N/A   Scattered Clouds
2:14 PM 10.4 °F -7.2 °F 1.4 °F 67% 30.09 in 10.0 mi West 17.3 mph 24.2 mph N/A   Clear
2:35 PM 10.4 °F -6.6 °F 1.4 °F 67% 30.09 in 10.0 mi West 16.1 mph 24.2 mph N/A   Scattered Clouds
2:54 PM 12.2 °F -5.3 °F 3.2 °F 67% 30.09 in 10.0 mi West 18.4 mph 25.3 mph N/A   Scattered Clouds
3:14 PM 10.4 °F -6.0 °F 1.4 °F 67% 30.10 in 10.0 mi West 15.0 mph 21.9 mph N/A   Scattered Clouds
3:35 PM 10.4 °F -6.0 °F 1.4 °F 67% 30.10 in 10.0 mi West 15.0 mph 24.2 mph N/A   Scattered Clouds
3:54 PM 10.4 °F -6.6 °F 1.4 °F 67% 30.10 in 10.0 mi West 16.1 mph 23.0 mph N/A   Scattered Clouds
4:14 PM 10.4 °F -6.0 °F 1.4 °F 67% 30.11 in 10.0 mi West 15.0 mph 23.0 mph N/A   Scattered Clouds
4:35 PM 10.4 °F -5.4 °F 1.4 °F 67% 30.11 in 10.0 mi West 13.8 mph 20.7 mph N/A   Scattered Clouds
4:54 PM 10.4 °F -5.4 °F 1.4 °F 67% 30.11 in 10.0 mi West 13.8 mph 19.6 mph N/A   Scattered Clouds
5:14 PM 8.6 °F -8.3 °F 1.4 °F 73% 30.12 in 10.0 mi West 15.0 mph 20.7 mph N/A   Scattered Clouds
5:35 PM 8.6 °F -6.3 °F 1.4 °F 73% 30.12 in 10.0 mi West 11.5 mph 17.3 mph N/A   Clear
5:54 PM 6.8 °F -8.6 °F 1.4 °F 79% 30.12 in 10.0 mi West 11.5 mph 18.4 mph N/A   Clear
6:14 PM 6.8 °F -8.6 °F -0.4 °F 72% 30.13 in 10.0 mi West 11.5 mph - N/A   Clear
6:35 PM 5.0 °F -10.8 °F -0.4 °F 78% 30.13 in 10.0 mi West 11.5 mph 16.1 mph N/A   Scattered Clouds
6:54 PM 5.0 °F -10.8 °F -0.4 °F 78% 30.13 in 10.0 mi West 11.5 mph 17.3 mph N/A   Scattered Clouds
7:14 PM 5.0 °F -11.6 °F -0.4 °F 78% 30.14 in 10.0 mi West 12.7 mph - N/A   Scattered Clouds
7:35 PM 3.2 °F -14.6 °F -0.4 °F 85% 30.14 in 10.0 mi West 13.8 mph 18.4 mph N/A   Clear
7:54 PM 3.2 °F -14.6 °F -0.4 °F 85% 30.14 in 10.0 mi West 13.8 mph - N/A   Clear
8:14 PM 3.2 °F -13.1 °F -0.4 °F 85% 30.14 in 10.0 mi West 11.5 mph 17.3 mph N/A   Scattered Clouds
8:35 PM 3.2 °F -13.9 °F -0.4 °F 85% 30.15 in 7.0 mi West 12.7 mph 19.6 mph N/A   Overcast
8:54 PM 3.2 °F -13.9 °F -0.4 °F 85% 30.15 in 7.0 mi West 12.7 mph 18.4 mph N/A   Overcast
9:14 PM 3.2 °F -13.9 °F -0.4 °F 85% 30.15 in 7.0 mi West 12.7 mph - N/A   Overcast
9:35 PM 3.2 °F -13.1 °F -2.2 °F 78% 30.15 in 5.0 mi West 11.5 mph 18.4 mph N/A   Haze
9:54 PM 3.2 °F -13.9 °F -2.2 °F 78% 30.16 in 7.0 mi West 12.7 mph - N/A   Overcast
10:14 PM 1.4 °F -15.3 °F -2.2 °F 85% 30.16 in 7.0 mi West 11.5 mph - N/A   Overcast
10:35 PM 1.4 °F -15.3 °F -2.2 °F 85% 30.16 in 5.0 mi West 11.5 mph - N/A Snow Light Snow
10:54 PM 1.4 °F -15.3 °F -2.2 °F 85% 30.16 in 10.0 mi West 11.5 mph - N/A   Scattered Clouds
11:14 PM -0.4 °F -17.6 °F -4.0 °F 85% 30.16 in 10.0 mi West 11.5 mph - N/A   Scattered Clouds
11:35 PM -0.4 °F -18.4 °F -5.8 °F 78% 30.16 in 10.0 mi West 12.7 mph - N/A   Scattered Clouds
11:54 PM -0.4 °F -16.7 °F -5.8 °F 78% 30.16 in 10.0 mi West 10.4 mph - N/A   Mostly Cloudy